Location: Bothwell
(41.7170°N, 112.2589°W)
Time: 02:28:54
(UTC+00:00)

Tiros 1 - Pass Details

Date: 12 May 2026
Orbit: 618 x 649 km, 48.4° (Epoch: 6 June)

Event Time Altitude Azimuth Distance (km) Brightness Sun altitude
Rises 11:15:16 0° 287° (WNW) 2,898 10.1 -10.0°
Reaches altitude 10° 11:17:45 10° 296° (WNW) 1,988 9.4 -9.6°
Maximum altitude 11:21:57 35° 3° (N) 1,002 8.5 -9.0°
Drops below altitude 10° 11:26:08 10° 70° (ENE) 1,979 11.2 -8.3°
Sets 11:28:36 0° 79° (E) 2,884 11.9 -7.9°
